User: anonymous
Location: Allison's Woods
(35.8809°N, 80.8140°W)
Time: 07:58:51
(UTC-04:00)
Language:

Iridium 39 - Orbit

View from above orbital plane
View from above orbital plane
View from above satellite
View from above satellite

Ground track
Ground track

The orbit data is extracted from the following two-line orbital elements,

1 25042U 97069D   14240.42849535  .00000124  00000-0  37179-4 0  9410
2 25042 086.3918 090.1026 0001828 106.6662 253.4735 14.34220874879574
Epoch (UTC): 28 August 2014 10:17:01
Eccentricity: 0.0001828
inclination: 86.3918°
perigee height: 776 km
apogee height: 779 km
right ascension of ascending node: 90.1026°
argument of perigee: 106.6662°
revolutions per day: 14.34220874
mean anomaly at epoch: 253.4735°
orbit number at epoch: 87957

The dashed part of the orbit path shows where the satellite is in the earth's shadow,  

DLR